YAOGAN-4

Last updated on Sun Jun 21 2026 00:02:51 GMT+0000 (Coordinated Universal Time)

1 33446U 08061A 26171.40531236 .00000754 00000+0 98778-4 0 9994 2 33446 97.9306 104.8918 0015630 62.9607 297.3200 14.83205273946144
UTC large
Height (km)
Speed (km/s)
/
Latitude / Longitude
Inclination (degrees)
Orbital Period (minutes)
Azimuth
Elevation
Range (km)
Doppler Factor

Next 0 passes for location: London (51.5072 / 0.1276)

No passes found over London.
YAOGAN-4